GEFSSE_500_meanwind_102.txt.gz
Wind_Speed
11 12 13 14 15 15 15 16 16 17 17 17 17 17 17 18 17 17 18 17 17 17 17 18 18 19 19 19 19 19 19 19 19 19 19 19 19 19 19 19 19 19 19
11 12 13 14 14 15 15 16 16 16 17 17 17 17 17 17 18 18 18 18 18 18 18 19 19 19 20 20 20 20 21 21 21 20 20 20 20 20 20 21 21 21 21
10 11 12 13 14 15 15 16 16 16 16 17 17 17 17 17 17 18 18 18 18 19 19 19 19 19 20 20 21 21 21 21 21 21 21 21 21 21 21 21 21 21 21
10 11 12 13 13 14 15 15 16 16 16 17 17 17 17 17 17 17 18 18 18 18 18 18 19 19 19 20 20 20 20 20 21 21 21 21 21 21 21 21 21 21 21
9 11 11 12 13 14 14 15 15 16 16 17 17 17 17 17 17 17 17 17 17 18 18 18 18 18 18 19 19 19 19 19 19 19 19 20 20 20 20 20 21 21 21
10 11 12 13 14 14 15 15 16 16 17 17 18 18 18 17 17 17 17 17 17 17 17 17 18 18 17 18 18 18 18 18 18 18 18 18 19 19 19 19 20 20 21
11 12 14 14 15 15 16 16 17 17 18 18 18 18 18 18 18 18 18 18 18 17 17 17 17 17 17 17 17 17 17 17 18 18 18 18 18 18 18 19 19 20 20
13 14 15 15 16 16 17 17 18 18 18 19 19 19 19 19 19 19 19 18 18 18 17 17 17 17 17 17 17 18 18 18 18 18 18 18 18 19 19 19 20 20 21
15 15 16 16 17 17 18 19 19 20 20 20 20 20 21 21 21 20 20 19 19 19 18 18 18 18 19 18 18 18 18 19 19 19 19 19 19 19 20 20 21 21 21
16 16 17 18 18 19 19 20 20 21 21 21 22 22 22 22 22 21 21 21 20 20 20 20 20 20 20 20 20 20 20 20 20 20 20 20 21 21 21 22 22 23 23
18 18 18 19 20 20 20 21 21 21 22 22 22 22 23 23 23 23 23 23 23 23 22 22 22 22 22 22 22 22 22 22 22 22 22 23 23 23 24 24 25 25 25
19 20 20 20 21 21 22 22 22 22 23 23 23 23 24 24 24 24 25 25 25 25 25 25 25 25 25 25 25 26 26 26 26 25 26 26 26 27 27 27 28 28 29
20 20 20 20 21 22 22 23 23 24 24 24 24 25 25 25 26 26 27 27 27 28 28 28 28 28 28 28 29 29 29 29 29 29 30 30 30 30 31 31 32 32 33
20 21 21 21 21 22 23 23 24 24 25 25 26 26 27 27 27 28 28 29 29 30 30 30 31 31 31 32 32 33 33 33 33 34 34 34 35 35 35 36 36 36 37
20 20 21 21 21 22 23 23 24 24 25 26 26 27 27 28 28 28 29 30 30 31 32 32 33 33 34 35 35 36 37 37 37 38 38 39 39 40 40 40 41 41 41
20 21 21 22 22 22 23 24 24 24 25 26 27 27 28 28 28 29 29 30 31 31 32 33 34 34 35 36 37 38 39 40 40 41 41 42 43 44 44 45 45 46 46
20 21 21 22 22 22 22 23 24 24 25 26 26 27 27 28 28 29 29 30 31 32 32 33 34 35 37 38 39 40 41 42 42 43 44 45 45 46 47 48 49 50 50
20 20 21 21 21 22 22 23 24 24 25 26 26 27 28 28 29 29 30 31 32 32 33 34 35 36 37 38 40 41 42 43 44 45 46 46 47 48 49 50 52 52 53
20 20 21 21 21 22 23 23 24 25 25 26 27 28 28 29 29 30 30 31 32 32 33 34 35 36 37 39 40 41 42 43 44 45 46 47 48 49 50 51 52 54 55
20 21 21 22 22 23 23 24 25 25 26 27 27 28 29 29 30 30 31 31 32 33 33 35 36 37 37 39 40 40 41 42 44 45 46 47 48 50 51 52 53 54 56
21 21 22 22 23 23 24 25 26 26 26 27 28 28 28 29 30 30 31 32 33 33 34 35 37 38 39 40 41 42 42 43 44 45 47 48 49 50 52 53 54 55 57
21 22 23 23 24 25 25 26 26 27 27 28 28 28 29 30 31 32 32 33 34 35 36 38 39 40 40 42 43 44 43 43 46 47 48 49 50 52 54 55 57 58 59
22 23 24 24 25 26 26 26 27 27 28 28 29 30 30 31 32 33 34 35 36 37 38 39 40 42 42 44 46 48 48 48 47 48 50 52 54 55 57 58 60 62 64
24 24 25 26 26 26 27 27 28 28 28 29 30 31 32 33 34 35 36 37 38 39 40 41 43 44 45 46 48 50 52 53 54 53 53 55 58 60 61 63 65 66 68
25 25 26 27 27 27 28 28 29 30 31 31 32 33 34 35 36 38 39 40 41 42 43 45 46 47 49 51 52 54 56 58 60 62 61 60 62 64 66 68 70 71 72
26 27 28 28 28 29 30 30 31 32 33 34 35 36 37 38 39 40 41 42 44 45 46 48 50 51 53 55 57 58 60 62 64 67 69 69 69 69 71 73 74 76 78

GEFSSE_500_meanwind_108.txt.gz
Wind_Speed
9 9 10 10 11 11 11 12 13 13 14 14 14 15 15 15 16 16 16 17 17 17 17 17 17 17 17 17 17 17 17 17 17 18 18 18 18 18 18 18 17 17 17
8 8 9 9 10 10 11 12 12 13 13 14 14 15 15 15 16 16 16 17 17 18 18 18 18 18 19 18 18 18 18 18 18 19 19 19 19 19 19 19 18 18 18
6 7 8 9 9 10 11 11 12 13 13 14 14 14 15 15 16 16 16 17 18 18 18 18 19 19 19 19 19 19 19 19 19 19 19 20 20 19 19 19 19 19 19
5 7 7 8 9 9 10 11 11 12 13 14 14 15 15 16 16 16 17 17 17 17 18 18 18 19 19 19 19 19 19 20 20 20 20 19 20 20 20 20 20 19 19
5 6 7 8 8 9 10 11 11 12 13 14 14 15 15 16 16 16 17 17 17 18 18 18 18 19 19 19 19 19 19 19 19 20 20 19 19 19 19 20 20 20 20
5 6 7 8 8 9 10 11 12 13 13 14 14 15 15 16 16 17 17 17 18 18 18 19 19 19 19 19 19 19 19 19 19 19 19 19 19 19 19 19 19 19 20
7 7 8 9 9 10 11 12 13 13 14 14 15 16 16 16 17 17 18 18 19 19 19 19 19 19 19 19 19 19 19 19 20 20 20 20 20 20 20 20 20 20 20
10 10 10 11 11 12 12 13 14 14 15 15 16 17 17 18 18 19 19 19 20 20 20 20 20 20 20 20 20 20 20 20 21 21 21 21 21 21 21 21 21 21 21
13 12 12 12 13 13 14 15 15 16 16 17 17 18 19 19 20 20 21 21 21 21 22 22 22 22 22 22 22 22 22 23 23 23 23 23 23 23 23 23 23 23 23
15 15 15 15 15 15 16 16 17 17 18 19 19 20 20 21 22 22 22 23 23 23 24 24 24 24 24 24 24 24 25 25 25 25 25 25 25 25 25 25 25 26 26
15 16 17 17 17 17 18 18 19 19 19 20 20 21 21 22 23 23 23 24 25 25 26 26 27 27 27 27 27 27 27 27 28 28 28 28 28 28 28 28 28 29 29
16 17 18 18 18 19 19 19 20 20 21 21 22 22 23 24 24 25 25 25 26 27 27 28 28 29 29 30 30 31 31 31 31 31 31 31 31 31 32 32 32 32 33
16 17 18 19 19 19 20 20 21 21 22 22 23 23 24 24 25 26 26 27 27 28 29 29 30 30 31 32 33 33 33 34 34 34 35 35 35 35 36 36 36 36 37
17 17 19 19 19 20 20 21 21 22 22 23 24 24 25 26 26 27 28 28 29 29 30 31 31 32 33 34 35 35 36 36 37 37 38 38 38 39 39 40 40 40 40
18 18 19 20 20 21 21 21 22 22 23 24 24 25 26 26 27 28 28 29 30 30 31 31 32 33 34 35 36 37 37 38 38 39 39 40 41 41 42 42 43 43 43
20 19 20 20 21 21 22 22 22 23 23 24 25 26 26 27 27 28 29 29 30 30 31 32 33 33 34 35 35 36 37 38 39 40 40 41 42 43 44 44 45 46 46
21 20 21 21 21 22 22 22 23 24 24 25 25 26 26 27 27 28 29 30 31 31 32 33 33 34 35 35 36 36 37 38 39 40 41 42 44 45 46 47 48 48 49
22 21 21 21 22 22 23 23 24 24 25 25 26 26 27 28 28 29 29 30 31 31 32 33 33 34 35 36 36 37 38 38 39 41 42 43 44 45 46 47 48 49 50
22 22 22 22 22 23 23 24 25 25 26 26 27 28 28 29 29 29 30 31 31 32 32 33 34 34 35 36 37 37 38 38 39 41 42 43 44 45 46 47 48 49 50
22 22 22 22 23 24 24 25 26 26 27 27 28 28 29 29 30 30 31 31 31 32 32 33 34 35 36 37 37 38 38 39 40 41 42 43 44 45 46 48 49 50 51
23 23 23 23 24 24 25 26 26 27 27 28 28 29 30 30 31 31 31 31 32 33 34 35 36 37 38 39 39 39 39 40 41 42 43 44 46 47 48 49 50 51 52
23 23 23 24 24 25 26 27 27 28 28 29 29 30 31 31 32 32 32 33 34 35 36 37 38 39 40 41 42 42 40 41 43 43 45 46 48 49 50 51 52 53 54
24 24 24 24 25 26 27 28 28 29 30 30 30 31 31 32 33 34 34 35 36 37 38 39 40 41 41 43 44 45 44 43 43 43 46 48 50 51 53 55 56 57 59
24 24 24 25 26 27 28 28 29 30 30 31 32 32 33 34 35 36 37 37 38 40 41 41 42 43 44 44 45 47 48 49 49 47 47 49 51 53 55 57 59 61 62
24 25 25 26 26 27 28 29 30 31 32 32 33 34 35 36 37 38 39 39 40 41 42 43 44 45 46 46 47 49 50 52 54 55 53 52 54 56 58 60 62 64 66
25 25 26 26 27 28 30 31 32 32 33 34 35 36 37 38 39 40 41 42 42 44 45 46 46 48 49 50 51 52 54 55 57 59 60 59 59 59 61 62 65 67 69

GEFSSE_500_meanwind_114.txt.gz
Wind_Speed
11 12 12 12 12 12 12 12 12 12 13 13 13 13 14 14 14 15 15 15 15 16 16 17 17 17 17 18 18 18 19 19 19 19 19 19 19 19 19 19 19 19 19
9 10 10 10 11 11 12 12 12 12 13 13 13 13 13 14 14 15 15 15 16 16 17 17 18 18 18 19 19 20 20 20 20 21 21 21 21 21 21 21 21 21 21
7 8 9 9 10 10 11 12 12 12 12 13 13 13 14 14 15 15 16 16 16 17 17 18 18 19 19 20 20 21 21 21 22 22 22 22 22 22 23 23 23 23 23
7 8 9 10 10 10 11 12 12 13 13 13 14 14 14 15 15 16 16 17 17 18 18 19 19 20 20 20 21 21 22 22 23 23 23 23 24 24 24 24 24 23 23
7 8 9 10 11 11 11 12 13 13 14 14 14 14 15 15 16 16 17 17 18 19 19 20 20 21 21 21 22 22 23 23 23 23 24 24 24 24 24 24 24 24 24
7 8 9 10 10 11 11 12 12 13 14 14 15 15 16 16 17 17 18 18 19 19 20 20 21 22 22 22 23 23 24 24 24 24 24 24 24 24 25 25 25 25 25
8 9 10 10 11 11 12 13 13 14 14 15 15 16 17 17 18 18 19 19 20 20 21 21 22 23 23 24 24 24 25 25 25 25 25 25 25 25 25 25 25 25 25
10 11 11 12 13 13 14 15 15 15 16 16 17 17 18 19 19 20 20 21 22 22 22 23 23 23 24 24 25 25 26 26 26 26 26 26 26 26 26 27 27 27 27
13 13 13 14 15 15 16 16 17 17 18 18 19 19 20 20 21 21 22 23 23 24 24 24 25 25 25 26 26 27 27 27 28 28 28 28 28 29 29 28 28 28 28
15 15 16 16 16 17 17 17 18 19 19 20 20 21 21 22 22 23 24 24 25 25 26 26 26 27 27 28 28 28 29 29 30 30 30 30 30 31 31 31 30 30 30
17 17 17 18 18 18 18 18 19 19 20 21 21 22 23 23 24 24 25 26 26 27 27 27 28 28 29 29 30 30 31 31 32 32 32 33 33 33 33 33 33 33 33
18 18 18 18 19 19 19 20 20 20 21 22 22 23 23 24 25 25 26 26 27 27 28 28 29 29 30 30 31 31 32 32 33 33 34 35 35 35 36 36 36 36 36
20 20 20 20 20 20 20 20 20 21 21 22 23 23 24 24 25 26 26 27 28 28 29 29 30 30 30 31 31 32 33 33 34 35 35 36 37 37 38 38 38 39 39
21 22 21 21 21 21 21 21 21 21 22 22 23 24 24 25 26 26 27 28 29 29 30 30 31 31 32 32 32 33 33 34 35 35 36 37 38 38 39 40 40 41 41
23 23 23 22 22 22 22 22 22 23 23 23 24 24 25 26 27 27 28 29 29 30 31 31 32 32 33 33 33 33 34 34 35 36 37 37 38 39 40 41 42 42 43
24 24 24 24 23 24 24 24 24 24 24 24 24 25 26 26 27 28 29 29 30 31 31 32 32 33 33 34 34 34 35 35 36 37 38 38 39 40 41 41 42 43 44
26 26 25 25 25 25 25 25 25 25 25 25 25 26 27 27 28 29 29 30 31 32 32 33 33 34 34 35 35 35 36 36 37 38 39 40 40 41 41 42 42 43 44
27 27 27 26 26 26 26 26 26 26 26 26 27 27 28 28 29 30 31 32 32 33 33 34 34 34 35 35 35 36 36 37 38 39 40 40 41 42 42 43 43 44 44
29 29 28 28 28 27 27 27 27 27 27 27 28 28 29 29 30 31 32 32 33 33 34 34 35 35 36 36 36 37 37 38 39 40 41 42 42 43 44 44 45 45 45
30 30 29 29 29 29 29 29 28 28 28 29 29 29 30 30 31 32 32 33 34 34 35 35 36 36 37 37 37 38 38 39 40 41 42 43 44 44 45 45 46 46 46
31 30 30 30 29 29 29 29 29 29 29 30 30 30 31 32 32 33 33 34 35 35 36 36 37 37 38 39 39 39 40 41 42 43 44 45 45 46 46 46 47 47 48
31 31 31 30 30 30 30 30 30 30 30 31 31 31 32 33 33 34 34 35 36 37 37 38 38 39 40 41 41 41 40 41 42 43 45 46 46 47 47 48 48 49 50
32 32 31 31 31 30 30 31 31 31 32 32 32 33 33 34 34 35 36 37 37 38 39 40 40 41 41 42 43 43 43 42 42 42 44 46 47 48 49 50 51 52 53
33 32 32 32 31 31 31 31 32 32 32 33 33 34 35 35 36 36 37 38 39 40 40 41 42 42 43 44 45 46 47 47 46 44 44 46 48 49 51 52 53 55 56
32 32 32 32 32 32 32 32 32 33 33 34 34 35 36 36 37 38 39 40 40 41 42 43 44 44 45 46 47 47 49 49 50 50 48 48 49 51 52 53 55 57 58
32 32 32 32 32 32 32 33 33 34 34 35 35 36 37 37 38 40 41 41 42 43 44 45 46 46 47 48 48 49 50 51 52 54 54 53 52 52 53 55 57 58 59

GEFSSE_500_meanwind_120.txt.gz
Wind_Speed
9 10 10 11 12 12 13 13 14 14 15 15 15 16 17 17 17 18 18 18 18 18 18 18 18 18 18 18 18 18 19 19 19 19 19 19 19 20 20 20 20 20 20
8 8 9 10 10 11 12 13 13 14 14 15 15 16 16 17 17 17 17 18 18 18 18 18 18 18 18 19 19 19 19 19 20 20 20 20 20 21 21 21 22 22 22
6 7 7 8 9 10 11 12 13 13 14 14 15 15 16 16 17 17 17 17 18 18 18 18 19 19 19 19 19 20 20 20 20 21 21 21 21 22 22 22 23 23 23
6 6 7 8 9 10 11 12 13 13 14 15 15 16 17 17 17 18 18 18 18 18 18 19 19 20 20 20 20 20 20 20 21 21 21 22 22 22 22 23 23 23 23
6 7 8 9 10 11 12 13 13 14 14 15 16 16 17 17 18 18 18 18 18 18 19 19 19 20 20 20 21 21 21 21 21 22 22 22 23 23 23 23 23 24 24
7 7 8 9 10 10 11 12 13 13 14 15 15 16 16 17 17 17 18 18 19 19 19 19 20 20 20 21 21 22 22 22 22 23 23 23 23 23 24 24 24 24 24
7 8 9 9 10 11 12 13 13 14 15 15 16 16 17 17 18 18 18 19 19 20 20 21 21 21 22 22 22 22 23 23 23 23 23 24 24 24 24 24 25 25 25
9 10 10 11 12 13 13 14 15 16 16 17 17 18 18 19 19 19 20 20 20 21 21 22 22 23 23 23 24 24 24 24 25 25 25 25 25 26 26 26 26 26 27
11 12 13 13 14 15 15 16 17 18 18 19 19 19 20 20 21 21 21 21 22 22 23 23 24 24 24 25 25 25 26 26 27 27 27 27 28 28 28 28 28 28 29
13 14 15 15 16 16 17 18 18 19 20 20 20 21 21 21 22 22 22 23 23 23 24 24 25 25 25 26 26 26 27 27 28 28 29 29 30 30 30 30 31 31 31
15 15 16 17 17 18 18 19 19 20 20 21 21 22 22 22 22 23 23 24 24 25 25 25 25 25 26 26 27 27 28 28 29 29 30 30 31 31 32 32 33 33 33
16 16 17 18 19 19 19 20 20 21 21 21 22 22 23 23 23 23 24 24 24 25 25 25 26 26 27 27 28 28 28 29 30 30 30 31 31 32 33 33 34 35 35
18 18 18 19 19 20 21 21 21 22 22 22 23 23 23 23 24 24 24 25 25 25 26 26 27 27 27 28 29 29 30 30 31 31 32 32 33 33 34 34 35 36 37
20 20 20 20 21 21 22 23 23 23 23 24 24 24 24 25 25 25 26 26 26 26 27 27 27 28 28 29 29 30 31 31 32 33 33 33 34 34 34 35 36 36 37
23 23 23 23 23 23 24 24 24 24 25 25 26 26 26 26 27 27 27 27 27 28 28 28 29 29 29 30 30 30 31 32 33 33 33 34 34 35 35 36 36 36 37
25 25 25 25 25 25 25 26 26 26 26 27 27 27 27 28 28 28 28 28 28 28 29 29 30 30 30 31 31 32 32 33 33 34 34 35 35 35 36 37 37 38 38
27 27 27 27 26 27 27 27 27 27 27 28 28 29 29 29 29 29 29 29 29 30 30 30 31 31 32 32 32 33 33 34 34 35 35 36 36 36 37 37 38 39 39
29 28 29 28 29 29 29 29 29 29 29 29 30 30 30 30 30 30 30 30 31 31 31 32 32 32 32 33 33 34 34 35 35 36 36 37 37 37 38 38 39 39 40
30 30 30 30 30 30 30 30 30 30 30 30 30 31 31 31 31 31 31 32 32 32 32 33 33 33 33 34 34 35 36 36 37 37 37 38 38 39 39 39 40 41 41
31 31 31 31 32 32 32 32 32 31 31 31 31 31 31 31 31 31 32 32 33 33 33 33 34 34 34 35 35 36 37 37 38 38 39 39 40 41 41 42 42 42 43
33 33 33 33 32 32 33 33 33 32 32 31 31 31 31 31 32 32 33 33 33 34 34 34 35 35 36 36 36 37 37 38 39 40 41 42 42 43 43 44 44 44 45
34 33 33 33 33 33 33 33 33 32 32 31 31 31 32 32 33 33 33 34 34 34 35 35 36 36 37 37 37 37 38 39 40 41 43 44 44 45 45 45 46 46 47
33 33 33 33 33 33 33 33 33 32 32 32 32 32 32 33 33 34 34 35 35 36 36 36 37 37 38 38 39 39 39 39 40 42 44 45 46 46 47 47 48 49 49
34 34 34 34 33 33 33 33 32 32 32 32 32 32 33 33 34 34 35 36 36 37 37 38 38 39 39 40 41 42 42 43 43 42 42 44 46 47 48 49 50 51 52
33 33 33 34 34 33 33 32 32 32 33 33 32 33 33 34 34 35 35 36 37 38 38 39 39 40 41 42 42 43 44 44 45 44 43 44 45 47 48 50 51 52 53
32 33 33 32 32 32 32 32 32 32 32 33 33 33 34 34 35 36 37 38 38 39 39 40 41 41 42 43 44 44 45 45 46 46 46 46 46 47 49 51 52 53 54

GEFSSE_500_meanwind_126.txt.gz
Wind_Speed
8 9 9 10 10 10 11 11 11 12 12 13 13 14 14 14 15 15 15 15 16 16 16 17 17 16 17 16 17 17 17 17 17 17 17 17 18 18 18 18 18 19 19
7 7 8 8 9 9 10 10 11 11 12 12 13 13 13 13 14 15 15 15 16 16 16 16 17 17 17 17 17 17 17 18 18 18 18 18 18 19 19 19 20 20 20
5 6 7 7 7 8 8 9 10 10 11 11 12 12 13 13 14 15 15 16 16 16 17 17 17 17 18 18 18 18 18 18 18 18 19 19 19 20 20 20 21 21 21
5 5 6 6 7 7 8 9 9 10 11 11 12 12 13 14 14 15 15 16 16 17 17 18 18 18 18 19 19 20 20 20 20 20 19 20 20 20 21 21 21 22 22
5 6 6 7 7 8 8 9 10 11 11 12 12 13 13 14 15 15 15 16 16 17 17 18 18 18 19 20 20 21 21 21 21 21 21 21 22 22 22 22 22 23 23
7 7 8 8 8 9 10 10 11 11 12 12 13 14 14 15 15 16 16 16 17 18 18 19 19 20 20 21 21 22 22 22 22 22 23 23 23 23 23 24 24 24 24
7 8 9 9 10 10 11 11 12 12 13 13 14 15 15 16 16 17 18 18 19 19 20 20 21 21 22 22 23 23 23 24 24 24 25 25 25 25 25 26 26 26 26
8 9 10 10 11 12 12 13 13 13 14 15 15 16 17 18 18 19 19 20 20 21 21 22 22 23 23 24 25 25 25 25 26 26 26 27 27 27 28 28 28 28 28
10 11 12 12 13 13 14 14 14 15 15 16 17 18 18 19 19 20 21 21 22 22 23 23 24 24 25 26 26 26 27 27 27 28 28 28 28 29 29 30 30 30 31
13 13 14 15 15 15 16 16 16 17 17 18 19 19 19 20 20 21 22 22 23 23 24 25 25 26 27 27 27 28 28 28 29 29 29 30 30 30 30 31 31 31 32
15 15 16 16 16 17 17 18 18 18 19 19 20 20 20 21 22 22 23 23 24 24 25 25 26 26 27 28 28 28 29 29 30 30 30 31 31 31 31 32 32 32 32
16 17 17 18 18 18 19 20 20 20 20 20 21 21 22 22 23 23 24 24 25 25 26 27 27 27 28 28 29 29 30 30 30 31 31 32 32 32 32 33 33 33 34
18 19 19 19 20 20 21 21 21 22 22 22 22 23 23 23 23 24 25 25 26 27 27 28 28 28 29 29 30 30 31 31 32 31 32 32 33 33 33 33 34 34 34
21 21 22 22 22 22 23 23 23 23 24 24 24 24 24 25 25 25 26 27 27 28 28 29 29 29 30 31 31 32 32 32 32 32 32 32 33 33 33 34 34 34 35
23 24 25 25 25 25 25 25 25 25 26 26 26 26 26 26 27 27 27 28 29 30 30 30 30 31 31 32 33 33 32 32 32 32 32 32 33 33 34 34 35 35 36
26 27 27 28 28 28 28 28 28 28 28 28 28 28 28 29 29 29 29 30 30 31 31 31 31 32 32 33 33 33 32 32 33 33 33 33 33 34 34 35 35 36 36
29 29 30 30 30 30 30 29 29 30 30 30 30 30 30 30 30 30 31 31 32 32 32 33 33 33 33 33 33 33 33 33 34 34 34 34 34 34 35 35 36 36 37
31 32 32 32 32 32 32 31 31 31 31 31 32 32 32 32 32 32 32 32 32 33 33 33 33 34 34 34 33 33 34 34 34 34 34 34 34 35 35 36 36 36 37
34 34 34 34 34 33 33 33 33 32 32 32 33 33 33 33 32 33 33 33 33 33 33 34 34 34 34 34 34 34 34 35 35 35 35 35 35 35 35 36 36 37 38
35 35 35 35 35 34 34 35 34 34 34 34 34 34 34 33 33 33 34 34 34 34 34 34 35 34 34 34 34 34 35 35 35 36 36 36 36 37 37 37 37 38 39
36 36 36 36 36 36 35 36 36 36 35 35 34 34 33 33 34 34 34 33 33 34 35 35 35 35 35 35 35 35 35 36 36 36 37 38 38 38 39 39 39 40 40
36 36 36 36 36 36 36 36 36 36 35 34 34 33 34 34 34 34 33 34 34 34 34 35 35 36 36 36 35 35 35 36 37 37 38 39 39 39 40 40 41 42 42
36 37 36 36 36 37 36 36 36 35 35 34 34 34 34 34 33 33 33 34 35 35 35 36 36 36 36 36 36 37 36 36 36 37 39 40 41 41 41 42 42 42 43
37 37 37 36 36 36 36 36 35 35 35 35 35 34 34 33 34 34 35 35 35 36 36 36 37 37 37 37 37 38 38 38 37 37 38 40 40 41 42 42 43 44 44
36 36 36 36 36 36 36 35 35 34 34 34 34 33 34 34 34 35 35 35 36 36 36 37 37 37 37 38 38 39 39 40 40 40 39 39 40 41 42 43 44 45 46
35 35 35 35 35 35 35 35 34 34 34 33 33 33 34 34 34 35 35 35 35 36 37 37 37 38 38 39 40 40 41 41 41 41 40 40 40 41 42 43 45 46 46

GEFSSE_500_meanwind_132.txt.gz
Wind_Speed
8 8 8 8 7 7 7 7 7 8 8 9 9 10 11 11 11 12 12 12 13 13 14 14 14 15 15 15 15 16 16 17 18 18 19 19 19 20 20 21 21 21 21
7 7 6 6 6 6 6 6 7 7 7 8 9 10 10 11 11 12 13 13 14 14 15 15 16 16 16 16 17 17 17 18 19 19 20 20 20 21 21 21 22 22 23
6 6 5 5 5 5 5 5 6 7 7 8 9 9 10 11 11 12 13 14 14 15 16 16 17 17 17 18 18 18 19 19 20 21 21 22 22 22 22 23 23 24 24
6 5 5 5 4 4 5 5 6 7 8 8 9 10 10 11 12 13 13 14 15 15 16 17 17 18 18 18 19 19 20 20 21 21 22 22 23 23 23 24 24 24 25
6 5 5 5 4 5 5 6 7 7 8 9 10 11 12 12 13 14 14 15 16 16 17 17 18 19 19 20 20 20 21 22 22 23 23 24 24 24 25 25 25 26 26
5 5 5 5 5 6 6 7 8 8 9 10 12 12 13 14 15 15 16 16 17 18 18 19 19 20 20 21 21 22 22 23 24 24 25 25 25 26 26 26 27 27 27
5 5 6 6 6 7 7 8 9 10 11 12 13 14 15 15 16 17 17 18 18 19 20 20 21 21 22 22 23 23 24 25 25 26 26 26 27 27 28 28 28 29 29
5 5 6 6 7 8 9 9 10 11 12 13 14 15 16 16 17 18 19 19 20 20 21 22 23 23 23 24 24 25 25 26 26 27 27 28 28 29 29 30 30 31 31
6 6 7 7 8 9 9 10 11 12 13 14 15 15 16 18 18 19 20 21 21 22 22 23 24 24 25 25 25 26 26 27 27 28 28 29 29 30 30 31 31 32 32
7 7 8 9 10 11 12 12 13 14 15 15 16 17 18 19 20 20 21 22 22 23 24 24 25 25 26 26 27 27 27 28 28 29 29 30 30 31 31 32 32 32 33
9 10 10 11 12 12 13 14 15 16 17 17 18 19 19 20 21 22 22 23 24 24 25 26 26 26 27 27 28 28 29 29 29 30 30 31 31 32 32 33 33 33 34
11 12 12 12 13 14 14 15 16 17 18 19 20 21 21 22 23 24 24 25 25 26 26 27 27 28 28 29 29 29 30 30 31 31 32 32 33 33 33 34 34 34 34
13 13 14 14 15 16 16 17 18 19 20 21 22 23 23 24 25 25 26 26 27 27 28 28 28 29 29 29 30 30 31 31 32 32 33 34 34 34 34 34 34 35 35
14 15 16 16 17 18 19 19 20 21 22 23 24 25 25 26 27 27 28 28 28 28 29 29 29 29 30 31 31 31 31 32 33 33 34 34 34 35 35 35 35 35 36
16 17 18 19 20 21 21 22 23 23 24 25 26 27 27 28 29 29 30 30 30 30 30 30 30 31 31 32 32 32 33 33 33 34 34 35 35 35 35 36 36 36 36
19 19 20 21 22 23 24 25 25 26 26 27 28 29 29 30 30 31 31 31 31 31 32 32 32 32 33 33 33 33 34 34 34 34 35 35 35 35 36 36 36 36 36
22 22 23 23 24 25 26 27 27 28 28 29 29 30 31 31 31 32 32 32 32 33 33 33 33 33 34 34 34 34 34 34 35 35 35 35 35 36 36 36 36 36 37
25 25 25 26 26 27 28 29 29 30 30 30 31 31 32 32 32 32 33 33 33 33 34 34 34 34 34 34 34 34 34 35 35 35 35 35 36 36 36 36 37 37 37
28 28 28 28 28 29 30 30 31 31 32 32 32 32 33 33 33 34 34 34 34 34 34 34 34 34 34 34 35 35 35 36 36 36 36 36 36 36 36 37 37 38 38
31 31 31 31 31 31 31 32 32 32 33 33 32 33 33 34 34 34 34 34 34 34 34 34 34 34 34 35 35 35 36 36 37 37 37 36 36 36 37 37 38 38 39
32 32 32 32 32 32 32 32 32 33 33 32 32 33 34 34 34 34 34 34 34 34 34 34 34 34 35 35 35 36 36 37 37 37 37 37 37 37 38 38 38 39 39
32 32 33 33 33 33 33 33 33 33 33 33 33 34 34 35 35 34 34 34 34 34 34 34 35 35 35 35 35 35 36 36 36 37 37 37 38 38 39 39 39 39 39
34 34 34 34 34 33 33 33 33 33 33 33 34 34 35 35 35 34 34 34 34 34 34 35 35 35 35 35 35 36 35 35 35 36 38 39 39 40 40 40 40 40 40
35 34 34 34 33 33 33 33 34 34 33 34 35 35 35 34 34 34 34 34 34 34 35 35 35 35 35 35 36 36 36 36 36 36 38 39 40 40 41 41 41 41 42
35 34 34 34 33 33 33 33 34 34 34 34 34 34 34 34 34 34 34 34 34 34 35 35 35 35 36 36 36 37 37 37 37 37 37 38 39 41 41 42 42 43 43
34 33 33 33 33 33 33 33 33 33 33 34 34 34 34 34 34 34 34 34 34 35 35 35 36 36 37 37 38 38 39 39 39 39 39 39 39 40 42 43 44 44 45

GEFSSE_500_meanwind_138.txt.gz
Wind_Speed
11 10 9 9 8 8 7 7 7 7 7 7 7 8 8 8 9 9 10 11 11 12 12 13 13 14 14 14 14 15 16 17 17 18 18 19 19 20 20 20 21 22 22
11 10 9 9 8 8 7 7 7 7 7 7 7 8 8 8 9 9 10 11 12 12 13 14 14 14 15 15 16 16 17 17 18 18 19 19 20 20 21 22 22 23 23
10 9 8 8 7 7 6 6 6 6 6 6 7 7 7 8 9 10 11 12 12 13 14 14 15 15 16 17 18 18 18 18 19 19 20 21 21 22 23 23 24 24 25
9 9 8 7 7 6 6 6 6 6 6 7 7 7 8 9 10 11 12 13 14 14 15 16 16 16 17 18 19 19 20 20 20 21 22 22 23 23 24 24 25 25 26
9 8 8 7 7 6 6 6 6 7 7 7 8 8 9 10 11 13 14 14 15 15 16 16 17 18 18 19 20 20 21 22 22 23 23 24 24 24 25 26 26 27 27
9 8 8 8 7 7 7 7 7 7 8 8 9 10 11 12 13 14 15 16 16 16 17 17 18 19 20 20 21 22 22 23 24 24 25 26 26 27 27 28 28 29 29
9 9 8 8 7 7 7 8 8 8 8 9 10 11 12 13 14 15 16 16 17 18 18 19 20 20 21 22 23 23 24 25 25 26 27 27 28 28 29 29 30 30 31
9 9 8 8 8 8 8 8 9 9 10 10 11 12 13 14 15 15 16 17 18 19 20 21 21 22 23 23 24 25 26 26 27 27 28 28 29 30 30 31 31 31 32
9 8 8 8 9 9 9 9 10 10 11 12 13 14 14 15 16 16 17 18 19 20 21 22 23 24 24 25 26 27 27 28 28 29 29 30 30 31 31 32 32 32 33
9 9 9 9 9 9 10 10 11 11 12 13 14 15 16 16 17 18 19 20 21 22 23 24 25 25 26 27 28 28 29 29 30 30 31 31 32 32 33 33 33 34 34
10 10 10 10 10 10 11 11 12 13 14 15 15 16 17 18 19 20 20 21 22 23 24 25 26 27 27 28 28 29 30 30 31 31 32 33 33 33 33 34 35 35 35
12 12 12 12 12 12 12 13 14 15 15 16 16 17 18 19 20 21 22 23 24 25 26 27 27 28 28 29 30 30 31 32 32 33 33 34 34 34 34 35 35 36 36
13 13 13 13 13 13 14 15 15 16 17 17 18 19 20 22 23 23 24 25 26 27 28 29 29 29 30 31 31 32 32 33 33 34 34 35 35 35 36 36 36 36 36
15 14 14 14 15 15 16 16 17 18 18 19 20 21 22 23 24 25 26 27 28 29 29 30 31 31 32 32 33 33 33 34 35 35 35 36 36 36 36 37 37 37 37
16 16 16 16 17 17 17 18 19 19 20 21 22 23 24 25 26 27 28 29 29 30 31 31 32 32 33 33 34 34 35 35 36 36 36 36 37 37 37 37 37 38 38
18 17 18 18 18 19 19 20 21 21 22 23 24 25 26 27 28 28 29 30 30 31 32 32 33 33 34 34 35 35 36 36 36 36 36 37 37 37 38 38 38 38 38
19 19 19 20 20 21 22 22 23 23 24 25 26 27 28 29 30 30 30 31 31 32 33 33 34 34 35 35 35 36 36 37 37 37 37 37 38 38 38 38 38 38 38
22 22 22 22 22 23 24 24 25 25 26 27 28 29 29 30 31 31 32 32 32 33 33 34 34 34 35 35 35 36 37 37 37 37 38 38 38 38 38 38 38 38 38
24 24 24 24 25 26 26 26 26 27 28 29 30 30 30 31 31 32 32 32 33 34 34 34 35 35 36 36 36 36 37 37 37 38 38 38 38 38 38 38 38 37 37
27 27 27 27 27 28 27 27 28 28 29 30 31 31 31 31 32 32 33 33 34 34 34 35 35 36 36 36 36 36 37 37 37 38 38 37 37 37 38 38 37 37 37
29 29 29 29 29 29 29 29 29 30 31 31 32 32 32 32 33 33 34 34 34 34 35 36 36 36 36 36 36 36 37 37 38 38 37 37 37 37 38 38 37 38 38
31 30 30 30 30 30 30 31 31 31 31 31 32 32 33 33 33 34 34 34 34 34 35 36 36 36 36 36 36 36 37 37 37 37 37 38 38 38 38 38 38 39 39
32 32 31 31 32 32 32 33 32 32 32 32 32 33 34 34 34 34 35 35 35 35 35 35 35 36 36 36 36 37 37 37 37 37 38 38 39 39 39 39 40 40 40
34 34 33 33 33 33 33 33 33 33 32 33 34 34 35 35 35 35 35 35 35 35 35 35 36 36 36 36 37 37 38 38 37 37 38 38 39 39 40 40 41 41 41
36 35 34 34 34 34 34 34 34 33 34 35 35 35 35 35 35 36 36 35 35 35 35 35 36 36 36 37 38 38 39 39 38 38 38 39 40 40 41 42 42 42 42
36 36 35 35 34 34 34 34 34 34 34 35 35 35 35 35 36 36 36 36 35 35 36 36 36 37 37 38 38 39 39 39 39 39 39 40 40 41 42 43 43 44 44